Jeremy Martin 35x0:35/0:25r row

5,590

Meters

20:25.0

Time

1:49.5

Pace

397

Calories

Rest Distance445
Rest Time14:35.0
Overall Distance6,035
Overall Time35:00.0
Average Watts266
Calories Per Hour1166
Stroke Rate25
Stroke Count517
Drag Factor118

August 27, 2026 15:06:00

Workout
RowErg

Workout Type
Interval:Time

Weight Class
Hwt

Verified
Yes

Entered
ErgData Android

Intervals

Time Meters Pace Watts Cal/Hr S/M
20:25.0 5,590 1:49.5 266 1166 25
0:35.0 156 1:52.1 248 1131 24
0:35.0 156 1:52.1 248 1131 24
0:35.0 157 1:51.4 253 1131 24
0:35.0 156 1:52.1 248 1131 24
0:35.0 157 1:51.4 253 1131 24
0:35.0 156 1:52.1 248 1131 24
0:35.0 156 1:52.1 248 1131 24
0:35.0 157 1:51.4 253 1131 24
0:35.0 159 1:50.0 263 1131 24
0:35.0 157 1:51.4 253 1131 24
0:35.0 158 1:50.7 258 1131 24
0:35.0 159 1:50.0 263 1131 24
0:35.0 160 1:49.3 267 1131 24
0:35.0 158 1:50.7 258 1131 24
0:35.0 156 1:52.1 248 1131 24
0:35.0 157 1:51.4 253 1131 24
0:35.0 157 1:51.4 253 1131 24
0:35.0 160 1:49.3 267 1131 24
0:35.0 159 1:50.0 263 1131 24
0:35.0 162 1:48.0 278 1234 26
0:35.0 160 1:49.3 267 1131 26
0:35.0 158 1:50.7 258 1131 26
0:35.0 162 1:48.0 278 1234 26
0:35.0 160 1:49.3 267 1131 26
0:35.0 162 1:48.0 278 1234 26
0:35.0 160 1:49.3 267 1131 27
0:35.0 161 1:48.6 273 1234 27
0:35.0 160 1:49.3 267 1131 27
0:35.0 165 1:46.0 293 1234 27
0:35.0 163 1:47.3 283 1234 26
0:35.0 161 1:48.6 273 1234 27
0:35.0 166 1:45.4 299 1234 27
0:35.0 166 1:45.4 299 1234 27
0:35.0 167 1:44.7 304 1337 29
0:35.0 165 1:46.0 293 1234 29
r445

Click on an interval to see the workout graph.

Click and drag on the graph to zoom in on a section.

Workout Graph

Loading data.